EW0209 Weather Reports


Display with metric or nautical units.
time (UTC)temp
F
wind
direction
speed
MPH
gust
MPH
rain 1hr
in
rain 24hr
in
rain mn
in
humidity
%
barometer
mb
20200409051508 60 300 8.0 15.0 0.00 0.00 0.00 47 1015.4
20200409050258 60 267 8.0 15.0 0.00 0.00 0.00 47 1015.1
20200409044835 61 286 7.0 17.0 0.00 0.00 0.00 47 1015.1
20200409043210 61 344 7.0 16.0 0.00 0.00 0.00 46 1014.9
20200409041615 61 319 8.0 15.0 0.00 0.00 0.00 46 1014.7
20200409040125 62 279 8.0 15.0 0.00 0.00 0.00 45 1014.5
20200409034608 63 311 8.0 18.0 0.00 0.00 0.00 45 1014.2
20200409033139 64 316 3.0 10.0 0.00 0.00 0.00 44 1014.0
20200409031610 65 265 3.0 5.0 0.00 0.00 0.00 43 1013.6
20200409030107 66 292 1.0 9.0 0.00 0.00 0.00 42 1013.3
20200409024548 66 235 6.0 10.0 0.00 0.00 0.00 41 1012.9
20200409023132 67 184 3.0 11.0 0.00 0.00 0.00 40 1012.4
20200409021625 67 213 3.0 10.0 0.00 0.00 0.00 39 1012.1
20200409020059 68 217 4.0 14.0 0.00 0.00 0.00 39 1011.8
20200409014614 69 232 6.0 15.0 0.00 0.00 0.00 39 1011.3
20200409013104 70 315 6.0 11.0 0.00 0.00 0.00 39 1011.0
20200409011607 70 225 3.0 13.0 0.00 0.00 0.00 41 1010.5
20200409010118 71 282 3.0 12.0 0.00 0.00 0.00 38 1010.1
20200409004628 72 239 2.0 9.0 0.00 0.00 0.00 38 1009.8
20200409003103 74 293 4.0 10.0 0.00 0.00 0.00 36 1009.7
20200409001543 76 287 5.0 10.0 0.00 0.00 0.00 34 1009.4
20200409000041 77 279 3.0 13.0 0.00 0.00 0.00 32 1008.9
20200408234743 78 290 3.0 12.0 0.00 0.00 0.00 29 1008.7
20200408233105 78 237 7.0 11.0 0.00 0.00 0.00 28 1008.6
20200408231617 79 250 5.0 12.0 0.00 0.00 0.00 28 1008.6
20200408230038 79 192 8.0 17.0 0.00 0.00 0.00 26 1008.2
20200408224522 79 205 12.0 21.0 0.00 0.00 0.00 25 1008.6
20200408223105 79 207 12.0 23.0 0.00 0.00 0.00 24 1008.7
20200408221522 78 225 12.0 22.0 0.00 0.00 0.00 25 1009.0
20200408220021 78 220 10.0 23.0 0.00 0.00 0.00 26 1008.8
20200408214522 78 246 11.0 20.0 0.00 0.00 0.00 26 1009.0
20200408213024 78 215 11.0 18.0 0.00 0.00 0.00 26 1009.0
20200408211543 79 201 8.0 19.0 0.00 0.00 0.00 27 1009.2
20200408210034 79 200 10.0 17.0 0.00 0.00 0.00 28 1009.3
20200408204521 79 223 6.0 17.0 0.00 0.00 0.00 28 1009.5
20200408203016 80 207 6.0 14.0 0.00 0.00 0.00 28 1009.6
20200408201514 80 199 10.0 16.0 0.00 0.00 0.00 26 1009.7
20200408200013 79 229 12.0 19.0 0.00 0.00 0.00 26 1010.0
20200408194739 79 184 9.0 21.0 0.00 0.00 0.00 27 1010.2
20200408193135 78 158 9.0 17.0 0.00 0.00 0.00 27 1010.6
20200408191820 78 210 10.0 17.0 0.00 0.00 0.00 26 1010.8
20200408190136 77 178 9.0 14.0 0.00 0.00 0.00 27 1011.0
20200408184649 78 207 12.0 21.0 0.00 0.00 0.00 27 1011.2
20200408183155 77 130 9.0 17.0 0.00 0.00 0.00 30 1011.3
20200408181637 77 184 6.0 13.0 0.00 0.00 0.00 31 1011.3
20200408180133 77 153 9.0 14.0 0.00 0.00 0.00 33 1011.4
20200408174651 76 87 6.0 13.0 0.00 0.00 0.00 36 1011.6
20200408173041 75 139 5.0 13.0 0.00 0.00 0.00 37 1011.7
20200408171550 74 104 5.0 11.0 0.00 0.00 0.00 38 1011.8
20200408170144 73 124 5.0 14.0 0.00 0.00 0.00 40 1012.1
20200408164530 73 119 5.0 8.0 0.00 0.00 0.00 39 1012.1
20200408163133 71 134 4.0 9.0 0.00 0.00 0.00 38 1012.1
20200408161551 70 148 5.0 8.0 0.00 0.00 0.00 41 1012.2
20200408160013 69 164 3.0 6.0 0.00 0.00 0.00 42 1012.3
20200408154535 68 140 1.0 4.0 0.00 0.00 0.00 42 1012.2
20200408153014 67 101 1.0 3.0 0.00 0.00 0.00 43 1012.4
20200408150154 65 138 1.0 2.0 0.00 0.00 0.00 48 1012.4
20200408144627 64 21 1.0 3.0 0.00 0.00 0.00 48 1012.3
20200408143116 63 91 1.0 2.0 0.00 0.00 0.00 50 1012.3
20200408141716 61 71 0.0 2.0 0.00 0.00 0.00 55 1012.1
20200408140107 59 102 0.0 0.0 0.00 0.00 0.00 58 1012.0
20200408134633 59 102 0.0 2.0 0.00 0.00 0.00 58 1011.8
20200408133039 58 84 0.0 1.0 0.00 0.00 0.00 58 1011.6
20200408131533 58 94 0.0 1.0 0.00 0.00 0.00 57 1011.5
20200408130100 58 82 0.0 0.0 0.00 0.00 0.00 57 1011.4
20200408124551 58 82 0.0 0.0 0.00 0.00 0.00 57 1011.1
20200408123028 59 82 0.0 0.0 0.00 0.00 0.00 58 1010.9
20200408121528 59 82 0.0 0.0 0.00 0.00 0.00 55 1011.0
20200408120032 59 82 0.0 0.0 0.00 0.00 0.00 55 1010.8
20200408114525 60 210 0.0 1.0 0.00 0.00 0.00 53 1010.7
20200408113020 60 210 0.0 0.0 0.00 0.00 0.00 51 1010.8
20200408111543 61 210 0.0 2.0 0.00 0.00 0.00 50 1010.8
20200408110030 61 214 1.0 3.0 0.00 0.00 0.00 49 1010.8
20200408104520 61 214 1.0 2.0 0.00 0.00 0.00 50 1011.0
20200408103022 61 214 2.0 3.0 0.00 0.00 0.00 51 1011.1
20200408101552 61 212 1.0 3.0 0.00 0.00 0.00 51 1011.2
20200408100019 61 150 0.0 0.0 0.00 0.00 0.00 51 1011.3
20200408094505 61 149 0.0 0.0 0.00 0.00 0.00 50 1011.6
20200408093011 62 149 0.0 0.0 0.00 0.00 0.00 49 1011.6
20200408091635 62 149 0.0 0.0 0.00 0.00 0.00 47 1011.8
20200408090142 63 149 1.0 3.0 0.00 0.00 0.00 46 1011.8
20200408084624 63 149 0.0 0.0 0.00 0.00 0.00 44 1011.8
20200408083129 64 149 0.0 0.0 0.00 0.00 0.00 43 1012.0
20200408081705 65 150 0.0 0.0 0.00 0.00 0.00 41 1011.9
20200408080120 65 150 0.0 3.0 0.00 0.00 0.00 40 1012.0
20200408074638 66 204 0.0 1.0 0.00 0.00 0.00 39 1011.9
20200408073050 67 205 1.0 3.0 0.00 0.00 0.00 37 1012.0
20200408071611 69 246 0.0 0.0 0.00 0.00 0.00 34 1011.9
20200408070133 69 246 0.0 2.0 0.00 0.00 0.00 34 1011.9
20200408064625 70 246 2.0 3.0 0.00 0.00 0.00 33 1011.9
20200408063105 71 298 2.0 11.0 0.00 0.00 0.00 32 1011.6
20200408061544 71 297 6.0 12.0 0.00 0.00 0.00 32 1011.5
20200408060111 71 302 7.0 12.0 0.00 0.00 0.00 32 1011.4
20200408054557 71 281 6.0 11.0 0.00 0.00 0.00 32 1011.4
20200408053215 71 260 6.0 12.0 0.00 0.00 0.00 32 1011.4